Tracking 18030 objects as of 28-March-2017
HD Live streaming from Space Station
objects crossing your sky now

OPS 5058 (DMSP 5B F2)

Track OPS 5058 (DMSP 5B F2) now!
10-day predictions
OPS 5058 (DMSP 5B F2) is classified as:


NORAD ID: 5903
Int'l Code: 1972-018A
Perigee: 781.4 km
Apogee: 856.6 km
Inclination: 99.0 °
Period: 101.1 minutes
Semi major axis: 7190 km
RCS: 1.4687 m2 (large)
Launch date: March 24, 1972
Source: United States (US)
Launch site: AIR FORCE WESTERN TEST RANGE (AFWTR)
Your satellite tracking list
Your tracking list is empty





NASA's NSSDC Master Catalog

Two Line Element Set (TLE):
1  5903U 72018A   17086.91765657 +.00000036 +00000-0 +35454-4 0  9997
2  5903 098.9965 151.9794 0052335 064.4986 296.1591 14.23992554410693
Source of the keplerian elements: AFSPC